TIME,DELAY(SENSOR),PRES,OXYGEN,RAWTEMP,T(OPTODE),TCPHASE,FLUOR,BETA(BETA700),BETA(BETA412),BETA(BETA440),CDOM,C(CSC),ED(ED412.40),ED(ED444.00),ED(ED489.70),ED(ED554.30),LU(LU411.80),LU(LU443.40),LU(LU489.60),LU(LU554.10),COMP,TILTX,TILTY,CHECK
1356407434,5808,864.0700073242188000,46.5560798645019500,666.2714233398438000,4.4212889671325680,54.1088714599609400,53,101,86,79,81,15182,2147756086,2147421906,2148009600,2147874770,2147641243,2147053522,2148263058,2147195072,2967,4,13,56846
1356411031,5808,963.6199951171875000,48.7875595092773440,673.3972778320312000,4.1859049797058105,53.8832893371582000,52,98,85,80,82,15184,2147758729,2147423936,2148008630,2147873673,2147642249,2147055707,2148264786,2147198381,863,4,13,55985
1356414631,5808,982.1099853515625000,50.1761894226074200,674.9509277343750000,4.1345119476318360,53.7056808471679700,53,99,85,80,80,15156,2147759515,2147422354,2148009371,2147876160,2147648338,2147054619,2148260937,2147194075,3252,4,13,15922
1356418231,5811,981.6900024414062000,50.1694908142089840,677.2907714843750000,4.0570530891418460,53.7360687255859400,53,98,86,78,80,15183,2147759049,2147425581,2148008054,2147875172,2147643062,2147054445,2148265984,2147197458,542,4,13,14725
1356421831,5805,990.4000244140625000,53.1239318847656250,678.0379028320312000,4.0323071479797360,53.3467292785644500,52,98,88,78,79,15186,2147762112,2147423625,2148009910,2147872521,2147645778,2147054875,2148266148,2147199232,172,4,13,40469
1356425431,5808,993.1699829101562000,52.9612388610839840,678.0789184570312000,4.0309491157531740,53.3724517822265600,53,100,87,78,81,15184,2147758162,2147424475,2148010221,2147872329,2147645129,2147057289,2148266413,2147193993,123,4,13,10104
1356429031,5808,991.5200195312500000,53.2076606750488300,678.2572021484375000,4.0250420570373535,53.3394088745117200,52,98,88,80,81,15187,2147762011,2147422537,2148009069,2147872749,2147646034,2147054464,2148262701,2147200429,489,4,13,6270
1356432631,5809,1002.5499877929688000,52.7805290222168000,678.0330200195312000,4.0324711799621580,53.3923301696777340,52,98,88,78,80,15182,2147763456,2147422473,2148011108,2147873901,2147644397,2147056658,2148265152,2147195456,3546,4,13,29571
1356436231,5809,998.6099853515625000,52.7034492492675800,677.4016113281250000,4.0533828735351560,53.3944511413574200,52,97,84,78,81,15186,2147759680,2147421961,2148009974,2147875785,2147645394,2147055451,2148260571,2147195474,3466,4,13,3991
1356439831,5807,1007.9000244140625000,53.1904182434082000,677.7020263671875000,4.0434322357177730,53.3364105224609400,53,99,88,79,80,15186,2147759460,2147424576,2148005888,2147877357,2147647350,2147056246,2148262400,2147197686,83,4,13,41647
1356443431,5811,1002.8800048828125000,50.3888511657714840,676.7691040039062000,4.0743269920349120,53.7042808532714840,54,99,84,78,81,14978,2147755574,2147420845,2148005942,2147873627,2147643821,2147060617,2148262454,2147196251,1013,4,13,9407
1356447031,5807,1002.8599853515625000,52.0245780944824200,676.8161010742188000,4.0727710723876950,53.4771995544433600,52,98,88,78,82,14984,2147760237,2147421138,2148008566,2147874569,2147643721,2147059602,2148263725,2147194944,1115,4,13,46015
1356450631,5811,1008.6500244140625000,51.8183898925781250,676.6801757812500000,4.0772719383239750,53.5087890625000000,53,96,88,79,81,14969,2147758336,2147423954,2148010870,2147872566,2147644608,2147054592,2148262866,2147195830,248,4,13,23393
1356454231,5814,1002.4199829101562000,52.1813888549804700,676.7238159179688000,4.0758299827575680,53.4560508728027340,52,98,86,79,80,14986,2147758354,2147422838,2148009115,2147874377,2147643337,2147056886,2148263058,2147194377,3578,4,13,9457
1356457831,5811,999.0100097656250000,52.6288909912109400,678.5979003906250000,4.0137557983398440,53.4246215820312500,53,97,86,79,80,14982,2147757961,2147424996,2148010166,2147875885,2147643446,2147053330,2148268653,2147192512,9,4,13,3899
1356461431,5804,994.6500244140625000,53.2688102722168000,679.4865722656250000,3.9843060970306396,53.3456306457519500,51,99,83,79,81,14984,2147760384,2147421814,2148010550,2147872292,2147644973,2147054253,2148264722,2147194230,3259,4,13,23552
1356465031,5810,1003.3200073242188000,53.5672912597656250,678.9000244140625000,4.0037460327148440,53.2983283996582000,53,98,88,79,81,14985,2147760896,2147423515,2148008219,2147873069,2147644288,2147057435,2148261970,2147195867,169,4,13,54582
1356468631,5806,1002.4299926757812000,53.8474197387695300,679.2371215820312000,3.9925749301910400,53.2709197998046900,52,97,88,78,81,14980,2147759442,2147422034,2148010166,2147876370,2147647149,2147056374,2148262555,2147192429,138,4,13,62394
1356472231,5754,1007.5100097656250000,53.3229713439941400,678.8206787109375000,4.0063719749450680,53.3289909362793000,52,97,83,79,80,14981,2147759963,2147424731,2148009289,2147876745,2147646171,2147059977,2148260470,2147196333,242,4,13,55404
1356475831,5809,1005.9000244140625000,52.2890014648437500,678.4038696289062000,4.0201821327209470,53.4686584472656250,53,100,81,79,80,14979,2147758308,2147421842,2148008502,2147875675,2147644973,2147056621,2148258139,2147193755,3488,4,13,19281
1356479431,5805,1002.4699707031250000,52.4027099609375000,678.6881713867188000,4.0107650756835940,53.4527091979980500,52,99,85,79,80,14977,2147758893,2147422848,2148010102,2147875136,2147641728,2147053604,2148264155,2147195611,169,4,13,11421
1356483031,5811,1005.8699951171875000,52.4603309631347660,679.0510864257812000,3.9987390041351320,53.4480209350585940,51,98,85,78,81,14977,2147757513,2147421549,2148011090,2147875492,2147645238,2147060032,2148261696,2147194633,65,4,13,60982
1356486631,5810,1006.9099731445312000,51.9494705200195300,678.7084960937500000,4.0100917816162110,53.5159301757812500,52,98,87,78,80,14976,2147756909,2147422235,2148010294,2147873755,2147645814,2147057581,2148262793,2147195922,2,4,13,18433
1356490231,5807,1007.2500000000000000,51.0593490600585940,679.2512207031250000,3.9921069145202637,53.6425018310546900,53,98,86,79,80,14977,2147759012,2147422802,2148008027,2147876352,2147644434,2147053842,2148263716,2147190601,352,4,13,6465
1356493831,5810,1008.9000244140625000,52.6608810424804700,678.7194213867188000,4.0097289085388180,53.4203414916992200,52,96,88,79,81,14977,2147758217,2147421019,2148009581,2147876242,2147645202,2147050212,2148265472,2147197275,3376,4,13,62415
1356497431,5807,1015.1300048828125000,52.3558998107910160,678.4345703125000000,4.0191650390625000,53.4588508605957000,52,98,90,79,82,14973,2147758939,2147422299,2148010139,2147872073,2147646299,2147056612,2148259885,2147195446,494,4,13,9113
1356501031,5813,1006.5100097656250000,52.4671516418457000,678.6915283203125000,4.0106530189514160,53.4455604553222660,53,99,88,78,82,14972,2147756379,2147422262,2148009142,2147873444,2147646582,2147051337,2148263250,2147195904,95,4,13,33827
1356504631,5808,1010.6599731445312000,53.0896797180175800,679.1118164062500000,3.9967288970947266,53.3676109313964840,52,98,85,79,81,14975,2147756763,2147422208,2148008950,2147872091,2147645970,2147059593,2148265947,2147198930,202,4,13,23003
1356508231,5810,1001.8099975585938000,52.8076400756835940,679.3572998046875000,3.9885919094085693,53.4043617248535160,53,98,88,79,81,14972,2147758217,2147425142,2148010477,2147870528,2147642395,2147054171,2148257197,2147196105,3400,4,13,15698
1356511831,5809,1007.4400024414062000,52.9847488403320300,679.3989257812500000,3.9872109889984130,53.3866004943847660,51,98,88,79,81,14975,2147759661,2147420982,2148011593,2147876946,2147648502,2147056320,2148262765,2147198793,3523,4,13,55031
1356515431,5811,1012.0000000000000000,53.0348701477050800,679.2056884765625000,3.9936139583587646,53.3715209960937500,52,98,89,78,81,14975,2147758125,2147422290,2148008146,2147871122,2147646381,2147060781,2148263826,2147194688,587,4,14,12307
1356519031,5807,1010.8800048828125000,52.3503913879394500,678.5211791992188000,4.0162959098815920,53.4573707580566400,52,97,87,79,80,14972,2147759680,2147425216,2148010011,2147871808,2147646345,2147058185,2148264301,2147193298,66,4,13,9711
1356522631,5809,1017.0800170898438000,51.4610214233398440,677.6264038085938000,4.0459370613098145,53.5693092346191400,52,98,87,79,81,14972,2147757138,2147424210,2148010953,2147872722,2147645046,2147053796,2148263725,2147196370,353,4,13,15887
1356526231,5810,1013.5200195312500000,49.6233596801757800,676.9506225585938000,4.0683188438415530,53.8075294494628900,52,100,91,80,81,14970,2147755382,2147423972,2148009526,2147874404,2147643995,2147058770,2148260937,2147198171,121,4,13,64292
1356529831,5811,1016.5200195312500000,49.3007698059082000,677.3308715820312000,4.0557250976562500,53.8574409484863300,52,98,84,79,81,14973,2147759094,2147423350,2148011702,2147871049,2147644854,2147054555,2148263872,2147197001,343,4,13,44181
1356533431,5808,1013.0300292968750000,49.4067382812500000,677.4033813476562000,4.0533242225646970,53.8448905944824200,53,129,87,80,81,14971,2147756260,2147421467,2148010761,2147877211,2147645065,2147057298,2148264868,2147197970,73,4,13,48990
1356537031,5811,1016.3800048828125000,51.7494888305664060,678.3223266601562000,4.0228838920593260,53.5395088195800800,52,97,89,78,80,14973,2147759478,2147424310,2148009453,2147878729,2147647780,2147057782,2148264795,2147195419,12,4,13,35956
1356540631,5806,1014.7000122070312000,51.2452697753906250,678.2675170898438000,4.0247020721435550,53.6062202453613300,52,102,84,79,81,14972,2147757604,2147424082,2148013888,2147875145,2147645915,2147058267,2148268013,2147197805,3597,4,14,40217
1356544231,5807,1005.1400146484375000,51.5185890197753900,678.3652954101562000,4.0214610099792480,53.5683708190918000,52,100,89,80,81,14973,2147753380,2147421741,2148011556,2147876498,2147647469,2147061668,2148267273,2147195474,686,4,13,21896
1356547831,5808,1010.8300170898438000,50.6495208740234400,679.1115722656250000,3.9967350959777830,53.6977615356445300,52,96,88,79,81,14972,2147759232,2147423305,2148012525,2147875254,2147647552,2147063378,2148263570,2147194422,213,4,13,12688
1356551431,5804,1011.5000000000000000,50.7871704101562500,679.5966186523438000,3.9806590080261230,53.6813507080078100,53,97,88,79,81,14969,2147761280,2147423954,2148009417,2147875858,2147645458,2147062966,2148266432,2147199040,181,4,13,57669
1356552055,5809,1009.0100097656250000,51.6802215576171900,679.6500854492188000,3.9788880348205566,53.5623283386230500,51,98,87,78,81,15174,2147760749,2147423451,2148011401,2147874925,2147644891,2147059154,2148265005,2147194989,3173,4,13,45346
